Flag for Canada Weather past 2 weeks in Saanich, British Columbia, Canada

Now
48 °F

Partly cloudy.


Feels Like: 47 °F
Forecast: 52 / 56 °F
Wind: 3 mph from South

Location: Victoria Int. Airportb. C.

Current Time: Oct 23, 2014 at 3:19:47 AM

Latest Report: Oct 23, 2014 at 3:00 AM


Visibility: 30 mi

Pressure: 29.67 "Hg

Humidity: 87%

Dew point: 45 °F

Location of SaanichLocation

Historic Weather in Saanich — Graph

°F

Saanich temperature yesterday

Maximum temperature yesterday: 55 °F (at 12:00 AM)
Minimum temperature yesterday: 52 °F (at 7:00 AM)
Average temperature yesterday: 54 °F

Past Weeks' High & Low Weather Summary

 TemperatureHumidityPressure
High66 °F (Oct 9, 3:00 PM)100% (Oct 8, 2:00 AM)30.22 "Hg (Oct 8, 2:00 AM)
Low46 °F (Oct 12, 2:00 AM)56% (Oct 11, 3:00 PM)29.48 "Hg (Oct 22, 8:00 PM)
Average55 °F90%29.83 "Hg
* Reported Oct 8 2:00 AM — Oct 23 2:00 AM, Saanich, Weather by CustomWeather, © 2014

Note: Actual official high and low records may vary slightly from our data, if they occured in-between our weather recording intervals... More about our weather records

Advertising

Saanich weather history for previous 24 hours

 ConditionsComfort  
Time TempWeatherWind HumidityBarometerVisibility
2:00 AM
Oct 23
50 °FPassing clouds.7 mph82%29.66 "Hg30 mi
1:00 AM52 °FPartly cloudy.7 mph82%29.64 "Hg20 mi
12:00 AM54 °FLight rain. Mostly cloudy.24 mph72%29.59 "Hg20 mi
11:52 PM
Oct 22
54 °FLight rain. Passing clouds.17 mph77%29.60 "Hg30 mi
11:00 PM52 °FPassing clouds.7 mph82%29.57 "Hg30 mi
10:00 PM52 °FPartly cloudy.8 mph88%29.54 "Hg20 mi
9:00 PM52 °FSprinkles. Fog.6 mph94%29.51 "Hg5 mi
8:00 PM54 °FSprinkles. Fog.5 mph94%29.48 "Hg3 mi
7:00 PM54 °FLight rain. Fog.2 mph94%29.50 "Hg1 mi
6:00 PM54 °FLight rain. Fog.8 mph94%29.52 "Hg3 mi
5:00 PM55 °FLight rain. Fog.10 mph94%29.56 "Hg5 mi
4:00 PM54 °FLight rain. Mostly cloudy.3 mph94%29.59 "Hg12 mi
3:51 PM54 °FLight rain. Mostly cloudy.3 mph94%29.59 "Hg12 mi
3:00 PM55 °FBroken clouds.5 mph94%29.60 "Hg15 mi
2:00 PM54 °FPartly sunny.3 mph94%29.64 "Hg15 mi
1:00 PM54 °FPartly sunny.9 mph94%29.65 "Hg15 mi
12:00 PM54 °FPartly sunny.7 mph94%29.66 "Hg30 mi
11:00 AM54 °FBroken clouds.5 mph94%29.66 "Hg15 mi
10:00 AM54 °FPartly sunny.6 mph88%29.65 "Hg15 mi
9:00 AM54 °FBroken clouds.7 mph94%29.64 "Hg20 mi
8:00 AM52 °FPassing clouds.9 mph100%29.64 "Hg15 mi
7:00 AM52 °FPassing clouds.8 mph100%29.60 "Hg15 mi
6:00 AM54 °FLight rain. Passing clouds.14 mph94%29.61 "Hg12 mi
5:00 AM54 °FOvercast.12 mph88%29.57 "Hg10 mi
4:00 AM54 °FRain. Fog.8 mph94%29.58 "Hg6 mi
3:49 AM54 °FHeavy rain. Fog.6 mph94%29.58 "Hg6 mi
3:00 AM54 °FRain. Mostly cloudy.18 mph94%29.56 "Hg12 mi
Weather by CustomWeather, © 2014

See weather overviewHow to use our weather pages